Tampa, FL

2:41 AM EST on January 21, 2017 (GMT -0500)
Tampa International Airport

Weather History for KTPA - August, 2013

Change the Weather History Date:

Thursday, August 8, 2013

  Actual Average Record
Temperature  
Mean Temperature 85 °F 83 °F  
Max Temperature 93 °F 90 °F 96 °F (1987)
Min Temperature 77 °F 76 °F 69 °F (1965)
Degree Days  
Heating Degree Days 0 0  
Month to date heating degree days 0 0  
Since 1 June heating degree days 0 0  
Since 1 July heating degree days 0 0  
Cooling Degree Days 20 18  
Month to date cooling degree days 156 144  
Year to date cooling degree days 2203 2095  
Since 1 June cooling degree days 1228 1218  
Growing Degree Days 34 (Base 50)    
Moisture  
Dew Point 73 °F    
Average Humidity 72    
Maximum Humidity 91    
Minimum Humidity 52    
Precipitation  
Precipitation 0.31 in 0.25 in 2.55 in (1970)
Month to date precipitation 2.28 1.94  
Year to date precipitation 32.89 27.89  
Sea Level Pressure  
Sea Level Pressure 29.98 in    
Wind  
Wind Speed 5 mph (ESE)    
Max Wind Speed 18 mph    
Max Gust Speed 25 mph    
Visibility 9 miles    
Events Rain , Thunderstorm    
T = Trace of Precipitation, MM = Missing Value Source: NWS Daily Summary

Daily Weather History Graph

Daily Weather History Graph

Search for Another Location

Airport or City:

Trip Planner

Search our weather history database for the weather conditions in past years. The results will help you decide how hot, cold, wet, or windy it might be!

Date:

Astronomy

Aug. 08, 2013 Rise Set
Actual Time 6:56 AM EDT 8:14 PM EDT
Civil Twilight 6:31 AM EDT 8:39 PM EDT
Nautical Twilight 6:02 AM EDT 9:08 PM EDT
Astronomical Twilight 5:31 AM EDT 9:39 PM EDT
Moon 8:28 AM EDT (8/8) 9:09 PM EDT (8/8)
Length of Visible Light 14h 07m
Length of Day
13h 17m
Waxing Crescent, 3% of the Moon is Illuminated
Aug 8
Waxing Crescent
Aug 14
First Quarter
Aug 20
Full
Aug 28
Last Quarter
Sep 5
New

Hourly Weather History & Observations

Time (EDT) Temp. Heat Index Dew Point Humidity Pressure Visibility Wind Dir Wind Speed Gust Speed Precip Events Conditions
12:53 AM 78.1 °F - 75.0 °F 90% 29.97 in 10.0 mi East 4.6 mph - N/A   Scattered Clouds
1:53 AM 78.1 °F - 75.0 °F 90% 29.96 in 10.0 mi East 5.8 mph - N/A   Partly Cloudy
2:53 AM 78.1 °F - 75.0 °F 90% 29.96 in 10.0 mi Calm Calm - N/A   Scattered Clouds
3:53 AM 78.1 °F - 75.0 °F 90% 29.95 in 10.0 mi ESE 4.6 mph - N/A   Partly Cloudy
4:53 AM 78.1 °F - 75.0 °F 90% 29.95 in 10.0 mi ESE 5.8 mph - N/A   Partly Cloudy
5:53 AM 79.0 °F - 75.0 °F 88% 29.95 in 10.0 mi ESE 4.6 mph - N/A   Partly Cloudy
6:53 AM 78.1 °F - 75.0 °F 90% 29.96 in 10.0 mi ESE 4.6 mph - N/A   Scattered Clouds
7:53 AM 79.0 °F - 75.0 °F 88% 29.96 in 10.0 mi ESE 4.6 mph - N/A   Scattered Clouds
8:53 AM 82.0 °F 89.4 °F 75.9 °F 82% 29.98 in 10.0 mi Variable 6.9 mph - N/A   Scattered Clouds
9:53 AM 84.0 °F 92.6 °F 75.9 °F 76% 29.99 in 10.0 mi SE 8.1 mph - N/A   Scattered Clouds
10:53 AM 86.0 °F 93.8 °F 73.9 °F 67% 30.01 in 10.0 mi SE 9.2 mph - N/A   Scattered Clouds
11:53 AM 88.0 °F 96.5 °F 73.9 °F 63% 30.01 in 10.0 mi South 8.1 mph - N/A   Scattered Clouds
12:53 PM 89.1 °F 97.0 °F 73.0 °F 59% 30.00 in 10.0 mi East 8.1 mph - N/A   Scattered Clouds
1:53 PM 91.0 °F 97.6 °F 71.1 °F 52% 29.99 in 10.0 mi South 9.2 mph - N/A   Scattered Clouds
2:53 PM 91.0 °F 97.6 °F 71.1 °F 52% 29.98 in 10.0 mi SSE 3.5 mph - N/A   Mostly Cloudy
3:53 PM 90.0 °F 99.0 °F 73.9 °F 59% 29.96 in 10.0 mi SW 6.9 mph - N/A   Mostly Cloudy
4:53 PM 86.0 °F 92.2 °F 72.0 °F 63% 29.95 in 10.0 mi North 6.9 mph - 0.00 in   Mostly Cloudy
5:53 PM 89.1 °F 96.0 °F 72.0 °F 57% 29.96 in 10.0 mi NNE 5.8 mph - N/A   Mostly Cloudy
6:53 PM 87.1 °F 93.6 °F 72.0 °F 61% 29.97 in 10.0 mi Calm Calm - N/A   Mostly Cloudy
7:53 PM 79.0 °F - 73.0 °F 82% 30.00 in 10.0 mi WSW 6.9 mph - N/A   Mostly Cloudy
8:35 PM 80.6 °F 85.4 °F 73.4 °F 79% 30.01 in 5.0 mi SE 11.5 mph 18.4 mph 0.00 in Rain , Thunderstorm Thunderstorms and Rain
8:39 PM 78.8 °F - 73.4 °F 83% 30.01 in 1.5 mi South 8.1 mph 18.4 mph 0.08 in Rain , Thunderstorm Thunderstorms and Rain
8:50 PM 78.8 °F - 69.8 °F 74% 30.00 in 3.0 mi NE 8.1 mph - 0.31 in Rain , Thunderstorm Thunderstorms and Rain
8:53 PM 77.0 °F - 70.0 °F 79% 29.99 in 2.0 mi NE 4.6 mph - 0.31 in Rain , Thunderstorm Thunderstorms and Rain
8:59 PM 77.0 °F - 71.6 °F 83% 29.99 in 10.0 mi Calm Calm - 0.00 in Rain , Thunderstorm Thunderstorms and Rain
9:14 PM 77.0 °F - 73.4 °F 89% 30.00 in 10.0 mi Calm Calm - 0.00 in   Mostly Cloudy
9:53 PM 78.1 °F - 73.9 °F 87% 30.04 in 10.0 mi NE 6.9 mph - 0.00 in   Mostly Cloudy
10:53 PM 78.1 °F - 73.9 °F 87% 30.04 in 10.0 mi Variable 3.5 mph - N/A   Scattered Clouds
11:53 PM 78.1 °F - 73.0 °F 84% 30.04 in 10.0 mi Calm Calm - N/A   Partly Cloudy